WetterOnline ( https://www.wetteronline.de )

Wetter aktuell Flesland

Aktuelles Wetter: Bergen/Flesland (50m)

6-stündlich | Neueste Meldungen
Ortszeit Temperatur Wetter
Di, 05.03. 1:00 3.9° C wolkenlos
Mo, 04.03. 19:00 8.5° C wolkig
Mo, 04.03. 13:00 8.1° C leichte Schauer
Mo, 04.03. 7:00 6.7° C bedeckt
Mo, 04.03. 1:00 9.4° C bedeckt
So, 03.03. 19:00 9.9° C bedeckt
So, 03.03. 13:00 9.6° C bedeckt
So, 03.03. 7:00 4.9° C wolkenlos
Ortszeit Temperatur Wetter
Di, 05.03. 6:00 1.7° C wolkenlos
Di, 05.03. 5:00 1.0° C wolkenlos
Di, 05.03. 4:00 2.2° C Nebel
Di, 05.03. 3:00 2.8° C wolkenlos
Di, 05.03. 2:00 4.2° C wolkenlos
Di, 05.03. 1:00 3.9° C wolkenlos
Di, 05.03. 0:00 4.2° C wolkenlos
Ortszeit Relative Feuchte Sichtweite
Di, 05.03. 1:00 59% 60 km
Mo, 04.03. 19:00 48% 55 km
Mo, 04.03. 13:00 100% 28 km
Mo, 04.03. 7:00 100% 55 km
Mo, 04.03. 1:00 62% >70 km
So, 03.03. 19:00 62% 65 km
So, 03.03. 13:00 72% 65 km
So, 03.03. 7:00 89% >70 km
Ortszeit Relative Feuchte Sichtweite
Di, 05.03. 6:00 67% 45 km
Di, 05.03. 5:00 75% 50 km
Di, 05.03. 4:00 72% 55 km
Di, 05.03. 3:00 63% 60 km
Di, 05.03. 2:00 55% 60 km
Di, 05.03. 1:00 59% 60 km
Di, 05.03. 0:00 61% 60 km
Ortszeit Niederschlagsmenge Niederschlagsart
Di, 05.03. 1:00 0.0 l/m2 in 6 Std. -
Mo, 04.03. 19:00 4 l/m2 in 12 Std. -
Mo, 04.03. 13:00 3 l/m2 in 6 Std. -
Mo, 04.03. 7:00 0.5 l/m2 in 12 Std. -
Mo, 04.03. 1:00 0.0 l/m2 in 6 Std. -
So, 03.03. 19:00 0.0 l/m2 in 12 Std. -
So, 03.03. 13:00 0.0 l/m2 in 6 Std. -
So, 03.03. 7:00 0.0 l/m2 in 12 Std. -
Ortszeit Niederschlagsmenge Niederschlagsart
Di, 05.03. 6:00 0.0 l/m2 in 1 Std. -
Di, 05.03. 5:00 0.0 l/m2 in 1 Std. -
Di, 05.03. 4:00 0.0 l/m2 in 1 Std. -
Di, 05.03. 3:00 0.0 l/m2 in 1 Std. -
Di, 05.03. 2:00 0.0 l/m2 in 1 Std. -
Di, 05.03. 1:00 0.0 l/m2 in 1 Std. -
Di, 05.03. 0:00 0.0 l/m2 in 1 Std. -
Ortszeit Stärke Spitze Richtung
km/h Bft. km/h Grad Sektor
Di, 05.03. 1:00 7 2 18 100° O
Mo, 04.03. 19:00 9 2 20 90° O
Mo, 04.03. 13:00 4 1 14 120° SO
Mo, 04.03. 7:00 2 1 15 350° N
Mo, 04.03. 1:00 4 1 14 130° SO
So, 03.03. 19:00 6 1 13 90° O
So, 03.03. 13:00 4 1 11 140° SO
So, 03.03. 7:00 6 1 11 290° W
Ortszeit Stärke Spitze Richtung
km/h Bft. km/h Grad Sektor
Di, 05.03. 6:00 4 1 11 10° N
Di, 05.03. 5:00 2 1 13 50° NO
Di, 05.03. 4:00 4 1 11 190° S
Di, 05.03. 3:00 6 1 15 150° SO
Di, 05.03. 2:00 11 2 14 100° O
Di, 05.03. 1:00 7 2 18 100° O
Di, 05.03. 0:00 9 2 15 120° SO
Ortszeit Untergrenze Bedeckung Gattung
total tief tief mittel hoch
Di, 05.03. 1:00 - 0/8 0/8 - - -
Mo, 04.03. 19:00 - 6/8 - - - -
Mo, 04.03. 13:00 - 8/8 - - - -
Mo, 04.03. 7:00 - 8/8 - - - -
Mo, 04.03. 1:00 - 8/8 - - - -
So, 03.03. 19:00 - 8/8 - - - -
So, 03.03. 13:00 - 8/8 - - - -
So, 03.03. 7:00 - 0/8 0/8 - - -
Ortszeit Bedeckungsgrad in Achtel und Wolkenuntergrenze
Di, 05.03. 6:00 keine Wolken
Di, 05.03. 5:00 keine Wolken
Di, 05.03. 4:00 keine Wolken
Di, 05.03. 3:00 keine Wolken
Di, 05.03. 2:00 keine Wolken
Di, 05.03. 1:00 keine Wolken
Di, 05.03. 0:00 keine Wolken
Ortszeit Luftdruck NN (hPa) Tendenz (hPa in 3 Std.)
Di, 05.03. 1:00 1021 + 1,6
Mo, 04.03. 19:00 1018 + 0,6
Mo, 04.03. 13:00 1017 + 1,0
Mo, 04.03. 7:00 1015 + 1,0
Mo, 04.03. 1:00 1012 + 0,5
So, 03.03. 19:00 1011 + 0,1
So, 03.03. 13:00 1011 + 0,6
So, 03.03. 7:00 1010 - 0,1
Ortszeit Luftdruck NN (hPa) Tendenz (hPa in 3 Std.)
Di, 05.03. 6:00 1023 + 1,3
Di, 05.03. 5:00 1023 + 1,2
Di, 05.03. 4:00 1022 + 1,4
Di, 05.03. 3:00 1022 + 1,9
Di, 05.03. 2:00 1021 + 2,0
Di, 05.03. 1:00 1021 + 1,6
Di, 05.03. 0:00 1020 + 1,4
Ortszeit Schneehöhe (cm)
Di, 05.03. 1:00 -
Mo, 04.03. 19:00 -
Mo, 04.03. 13:00 -
Mo, 04.03. 7:00 -
Mo, 04.03. 1:00 -
So, 03.03. 19:00 -
So, 03.03. 13:00 -
So, 03.03. 7:00 -
Ortszeit Schneehöhe (cm)
Di, 05.03. 6:00 -
Di, 05.03. 5:00 -
Di, 05.03. 4:00 -
Di, 05.03. 3:00 -
Di, 05.03. 2:00 -
Di, 05.03. 1:00 -
Di, 05.03. 0:00 -
Link zu dieser Seite / Seite empfehlen

Das Wetter in ...